Terminal Aerodrome Forecast
Issued by NWS

Home | Current Version | Previous Version | Text Only | Print | Product List | Glossary On
Versions: 1 2 3 4 5 6 7 8 9 10 11 12 13 14 15 16 17 18 19 20 21 22 23 24 25 26 27 28 29 30 31 32 33 34 35 36 37
538
FTUS46 KLOX 142124 AAA
TAFLAX
TAF AMD
KLAX 142124Z 1421/1524 26010KT 5SM HZ SCT200
     FM142200 26009KT 6SM HZ SCT200
     FM150300 29005KT 6SM BR FEW004
     FM150600 VRB03KT 2SM BR VCFG BKN003
     FM151000 08004KT 3/4SM BR VCFG OVC002
     FM151800 03005KT 2SM BR BKN003 BKN250
     FM152100 27008KT P6SM SKC=

USA.gov is the U.S. government's official web portal to all federal, state and local government web resources and services.